Location: Colonial Woods South
(40.1818°N, 76.8289°W)
Time: 03:00:59
(UTC+00:00)

Hubble Space Telescope - Pass Details

Date: 30 April 2026
Orbit: 473 x 476 km, 28.5° (Epoch: 11 May)

Event Time Altitude Azimuth Distance (km) Brightness Sun altitude
Rises 00:51:05 0° 244° (WSW) 2,506 4.7 -9.6°
Reaches altitude 10° 00:54:24 10° 213° (SSW) 1,629 3.3 -10.2°
Maximum altitude 00:55:57 12° 188° (S) 1,497 2.8 -10.4°
Drops below altitude 10° 00:57:30 10° 163° (SSE) 1,629 2.8 -10.7°
Enters shadow 00:57:46 - 160° (SSE) 1,676 2.8 -10.7°
